User: anonymous   Login
Location: Caltech
(34.1382°N, 118.1253°W)
Time: 07:57:40
(UTC-08:00)
Language:

Cosmos 2084 - Orbit

View from above orbital plane
View from above orbital plane
View from above satellite
View from above satellite

Ground track
Ground track

The orbit data is extracted from the following two-line orbital elements,

1 20663U 90055A   15064.40323621  .00001759  00000-0  19300-3 0  9991
2 20663 062.7951 131.5977 0063963 355.7198 004.3339 14.90104659335335
Epoch (UTC): 05 March 2015 09:40:39
Eccentricity: 0.0063963
inclination: 62.7951°
perigee height: 553 km
apogee height: 642 km
right ascension of ascending node: 131.5977°
argument of perigee: 355.7198°
revolutions per day: 14.90104659
mean anomaly at epoch: 4.3339°
orbit number at epoch: 33533

The dashed part of the orbit path shows where the satellite is in the earth's shadow,  

DLR